Location: Unspecified
(0.0000°N, 0.0000°E)
Time: 06:39:46
(UTC+00:00)

Courier 1B Rocket - Pass Details

Date: 16 December 2018
Orbit: 920 x 1202 km, 28.2° (Epoch: 16 June)

Event Time Altitude Azimuth Distance (km) Brightness Sun altitude
Rises 05:08:29 0° 244° (WSW) 3,570 7.6 -10.8°
Reaches altitude 10° 05:11:07 10° 246° (WSW) 2,612 6.9 -10.2°
Maximum altitude 05:17:20 72° 330° (NNW) 961 4.9 -8.8°
Drops below altitude 10° 05:23:36 10° 54° (NE) 2,635 7.7 -7.3°
Sets 05:26:16 0° 56° (NE) 3,604 8.5 -6.7°
